Terminal Aerodrome Forecast
Issued by NWS

Home | Current Version | Previous Version | Text Only | Print | Product List | Glossary On
Versions: 1 2 3 4 5 6 7 8 9 10 11 12 13 14 15 16 17 18 19 20 21 22 23 24 25 26 27 28 29 30 31 32
000
FTUS41 KBUF 290300 AAB
TAFJHW
TAF AMD
KJHW 290334Z 2904/2924 33007KT P6SM SCT025 OVC060
     FM290600 32008KT P6SM BKN025
     FM290900 28006KT 4SM BR BKN015
     FM291300 29005KT P6SM BKN025
     FM291900 29010KT P6SM VCSH BKN025
     FM292200 28009KT P6SM VCSH BKN060
      AMD LTD TO CLD VIS AND WIND=

USA.gov is the U.S. government's official web portal to all federal, state and local government web resources and services.